Flag for Rwanda Weather past 2 weeks in Gitarama, Rwanda

Now
63 °F

Partly cloudy.


Feels Like: 63 °F
Forecast: 64 / 77 °F
Wind: 3 mph from West

Location: Kigali Airport

Current Time: Oct 2, 2014 at 2:32:05 AM

Latest Report: Oct 2, 2014 at 2:00 AM


Visibility: N/A

Pressure: 30.09 "Hg

Humidity: 100%

Dew point: 63 °F

Location of GitaramaLocation

Historic Weather in Gitarama — Graph

°F

Gitarama temperature yesterday

Maximum temperature yesterday: 84 °F (at 1:30 PM)
Minimum temperature yesterday: 61 °F (at 3:30 AM)
Average temperature yesterday: 67 °F

Past Weeks' High & Low Weather Summary

 TemperatureHumidityPressure
High86 °F (Sep 18, 1:00 PM)100% (Sep 17, 12:00 PM)30.24 "Hg (Sep 17, 12:00 PM)
Low59 °F (Sep 21, 5:30 AM)40% (Sep 18, 4:00 PM)30.01 "Hg (Sep 17, 4:00 PM)
Average71 °F76%30.11 "Hg
* Reported Sep 17 1:00 AM — Oct 2 1:00 AM, Gitarama, Weather by CustomWeather, © 2014

Note: Actual official high and low records may vary slightly from our data, if they occured in-between our weather recording intervals... More about our weather records

Advertising

Gitarama weather history for previous 24 hours

 ConditionsComfort  
Time TempWeatherWind HumidityBarometerVisibility
1:00 AM
Oct 2
63 °FPartly cloudy.8 mph100%30.12 "Hg5 mi
12:30 AM63 °FPassing clouds.6 mph100%30.12 "Hg5 mi
12:00 AM63 °FPassing clouds.6 mph100%30.15 "Hg5 mi
11:30 PM
Oct 1
63 °FPassing clouds.6 mph100%30.18 "Hg5 mi
11:00 PM63 °FPassing clouds.5 mph100%30.18 "Hg5 mi
10:30 PM64 °FPassing clouds.No wind100%30.18 "Hg5 mi
10:00 PM64 °FPassing clouds.5 mph100%30.21 "Hg5 mi
9:30 PM63 °FPassing clouds.3 mph100%30.21 "Hg5 mi
9:00 PM63 °FPassing clouds.5 mph100%30.21 "Hg5 mi
8:30 PM63 °FLight rain. Passing clouds.N/A100%30.18 "Hg5 mi
8:00 PM63 °FLight rain. Passing clouds.7 mph100%30.18 "Hg5 mi
7:30 PM63 °FLight rain. Passing clouds.6 mph100%30.18 "Hg5 mi
7:00 PM63 °FMild.7 mph100%30.18 "Hg5 mi
6:30 PM63 °FThunderstorms. Passing clouds.7 mph100%30.15 "Hg5 mi
6:00 PM64 °FThunderstorms. Passing clouds.7 mph100%30.15 "Hg5 mi
5:30 PM64 °FThunderstorms. Partly sunny.7 mph100%30.15 "Hg5 mi
5:00 PM64 °FThunderstorms. Partly sunny.9 mph100%30.12 "Hg5 mi
4:30 PM64 °FThunderstorms. Partly sunny.9 mph100%30.09 "Hg5 mi
4:00 PM64 °FLight rain. Partly sunny.8 mph100%30.09 "HgN/A
3:30 PM68 °FRain. Partly sunny.13 mph100%30.07 "HgN/A
2:30 PM84 °FScattered clouds.6 mph48%30.01 "HgN/A
2:00 PM84 °FScattered clouds.6 mph45%30.01 "HgN/A
1:30 PM84 °FScattered clouds.5 mph48%30.04 "HgN/A
1:00 PM82 °FScattered clouds.3 mph51%30.04 "HgN/A
12:00 PM79 °FScattered clouds.3 mph58%30.09 "HgN/A
11:30 AM75 °FScattered clouds.3 mph69%30.15 "HgN/A
11:00 AM75 °FScattered clouds.3 mph69%30.15 "HgN/A
10:30 AM75 °FScattered clouds.9 mph69%30.15 "HgN/A
10:00 AM72 °FScattered clouds.8 mph78%30.15 "HgN/A
9:30 AM73 °FScattered clouds.7 mph78%30.15 "HgN/A
9:00 AM72 °FScattered clouds.No wind78%30.15 "HgN/A
8:30 AM72 °FPassing clouds.No wind78%30.15 "Hg5 mi
8:00 AM68 °FPassing clouds.No wind88%30.15 "Hg5 mi
7:30 AM66 °FPassing clouds.No wind94%30.15 "Hg4 mi
7:00 AM64 °FPassing clouds.No wind94%30.12 "Hg4 mi
6:30 AM61 °FPassing clouds.No wind100%30.12 "Hg4 mi
6:00 AM61 °FPassing clouds.No wind100%30.09 "Hg5 mi
5:30 AM61 °FPassing clouds.No wind100%30.09 "HgN/A
5:00 AM61 °FPassing clouds.No wind100%30.09 "HgN/A
4:30 AM61 °FClear.No wind100%30.09 "Hg10 mi
4:00 AM61 °FClear.5 mph100%30.07 "Hg10 mi
3:30 AM61 °FClear.5 mph100%30.07 "Hg10 mi
3:00 AM63 °FClear.6 mph100%30.07 "Hg10 mi
2:30 AM63 °FClear.7 mph100%30.07 "Hg10 mi
2:00 AM63 °FClear.6 mph100%30.07 "Hg10 mi
Weather by CustomWeather, © 2014

See weather overviewHow to use our weather pages